Temp
13 13 13 12 13 12 12 12 13 13 13 14 15 16 17 18 18 18 18 19 19 19 19 20 20 20 20 17 18 19 19 20 20 21 18 17 16 16 16 16 16 16 16 16 15 15 15
13 13 14 14 15 14 13 12 13 14 15 16 16 17 18 18 19 18 18 19 19 19 20 20 21 21 20 17 19 19 19 20 19 19 17 16 16 16 16 16 16 16 16 16 15 15 15
14 14 14 14 14 14 15 14 15 14 14 15 17 17 18 19 19 19 19 19 20 20 21 21 21 21 17 19 19 19 19 19 19 19 17 17 17 17 16 17 15 16 16 15 15 15 15
14 14 14 14 14 15 15 15 15 14 15 16 17 17 18 19 19 20 20 20 20 20 21 21 21 21 19 20 20 20 20 20 19 19 18 18 18 15 15 16 14 13 13 14 16 15 14
13 13 13 14 14 15 15 15 15 16 17 17 17 18 18 19 20 20 20 21 21 21 21 21 21 20 19 21 20 19 19 18 19 19 19 19 17 13 13 14 13 11 14 14 14 14 14
14 13 13 14 14 15 15 16 16 17 17 17 18 18 18 19 20 20 20 21 21 21 21 21 20 19 19 18 19 19 19 19 17 18 17 15 12 13 11 12 14 14 13 13 12 14 13
14 13 13 14 14 15 15 16 16 17 17 18 18 18 18 19 20 21 21 21 18 18 19 18 18 18 18 19 19 19 18 18 17 14 15 13 13 14 15 14 15 14 13 12 12 14 13
14 14 13 13 14 15 15 15 16 17 17 18 18 18 19 19 19 20 20 15 13 15 18 17 18 18 18 17 17 17 19 17 16 15 15 14 15 15 15 15 15 14 14 12 12 13 13
14 14 13 13 14 15 15 15 16 17 17 17 18 18 19 19 19 19 16 14 14 15 17 19 18 18 18 18 17 17 17 16 16 16 15 15 17 16 16 15 14 14 14 14 13 12 11
14 14 14 13 14 15 15 15 16 16 17 18 18 18 19 19 18 16 15 15 15 15 15 19 19 19 18 17 18 17 16 17 16 17 16 16 16 16 15 16 14 13 14 13 12 12 12
14 14 14 15 14 14 15 15 16 16 17 17 18 18 18 19 17 15 14 15 15 15 16 19 18 19 17 17 17 18 16 17 16 16 16 17 16 15 16 16 14 14 13 12 12 11 11
14 14 14 14 14 14 15 15 16 16 17 17 18 18 18 17 17 15 15 15 15 16 16 19 17 16 18 16 16 15 15 14 15 16 15 15 14 14 15 14 14 13 13 12 9 10 11
13 14 14 14 14 14 14 15 15 16 17 17 18 18 18 17 15 16 16 15 15 16 18 19 17 16 16 16 17 15 15 13 14 17 14 13 15 15 14 14 14 12 11 12 12 11 13
14 14 14 14 14 14 14 14 15 16 16 17 18 17 16 16 16 16 16 16 20 19 17 16 16 16 17 16 16 15 15 14 14 13 11 13 14 15 14 15 14 13 12 12 14 12 11
14 14 14 14 13 13 14 14 15 15 16 17 18 17 16 15 15 15 14 16 17 17 17 17 17 17 17 16 16 15 15 14 14 13 16 13 14 14 14 14 14 13 12 12 11 10 9
14 14 14 14 13 13 13 14 14 15 16 17 16 15 15 15 15 15 14 15 16 16 15 16 18 17 17 16 17 16 15 14 15 13 13 14 13 14 14 13 12 13 11 12 9 12 12
14 15 14 13 13 13 13 13 14 14 16 16 15 13 14 15 14 12 15 14 15 15 16 16 16 16 15 16 15 15 15 14 14 13 13 12 12 13 13 12 11 11 11 11 9 9 11
12 13 13 13 13 13 13 13 13 13 15 16 13 14 14 14 14 8 14 15 15 15 14 15 15 14 14 15 15 14 14 14 12 12 13 12 9 10 12 12 12 12 11 10 11 11 8
12 12 13 13 13 12 12 13 12 13 13 12 9 9 13 14 15 13 13 15 15 14 14 14 14 13 14 14 15 13 14 15 11 12 11 11 10 11 13 12 11 10 10 10 11 11 11
12 12 12 12 12 12 12 12 12 12 12 12 9 13 11 9 9 14 15 15 15 13 14 13 14 14 14 13 12 14 14 14 11 12 13 12 10 12 14 15 12 11 11 11 13 11 13
11 11 12 12 12 12 12 12 12 12 12 11 8 11 10 12 12 13 14 14 15 15 13 13 14 13 13 13 13 12 12 13 12 13 12 12 10 9 11 12 12 12 12 12 12 13 12
11 11 11 11 11 11 12 12 12 12 12 12 11 10 7 9 10 12 13 14 14 15 13 13 12 14 11 13 14 15 13 12 13 10 10 9 11 9 11 9 10 10 11 11 11 12 13
10 11 11 11 11 11 11 11 11 11 11 11 9 9 10 12 10 11 11 13 14 14 14 14 12 13 12 12 13 14 13 13 14 12 10 9 9 8 12 11 10 11 11 11 10 10 11
9 10 10 11 11 11 11 11 11 11 10 11 10 10 10 11 10 11 13 12 14 13 14 14 12 13 14 13 12 11 10 9 8 10 12 11 10 9 10 10 12 15 13 12 11 11 10
8 9 9 9 10 10 11 11 11 10 10 9 10 10 9 10 9 10 11 11 11 11 11 12 13 12 12 13 13 12 12 11 10 8 9 11 12 9 11 11 12 13 11 11 11 11 8
6 7 8 8 9 10 10 10 10 10 10 9 9 10 9 10 10 11 11 11 11 11 11 11 11 10 12 12 11 11 12 12 12 11 6 7 9 10 10 10 11 12 9 9 10 10 5
4 5 5 6 8 9 9 9 10 10 10 9 9 9 9 9 10 9 10 11 11 10 10 11 11 11 11 10 11 10 11 11 11 11 11 8 7 9 10 11 11 9 8 8 9 10 5
3 3 3 4 5 8 9 9 9 9 9 9 9 9 9 9 10 9 10 10 11 11 11 11 11 10 9 10 10 11 10 10 9 10 11 11 10 9 9 10 11 7 7 8 5 3 2
2 2 2 3 4 5 7 8 9 9 9 9 8 8 9 8 9 9 10 12 12 11 10 10 11 10 10 9 9 9 8 7 9 10 8 10 11 10 9 11 6 1 2 -0 0 0 -1
Height
864 861 859 855 851 847 844 840 836 832 829 826 823 820 818 817 816 815 814 814 814 814 814 813 812 811 810 814 817 813 809 806 804 801 800 801 806 811 818 817 818 821 822 822 822 822 822
866 864 861 857 852 847 844 840 837 834 830 826 823 821 819 818 817 816 816 816 816 815 815 814 812 811 810 824 816 813 810 808 806 805 805 805 809 810 816 820 821 821 821 821 822 822 822
868 865 862 858 854 849 845 842 838 834 831 828 824 822 820 819 818 818 817 817 817 816 815 814 813 812 813 821 816 813 810 809 809 808 809 809 809 810 816 820 822 822 824 825 823 823 823
870 866 863 859 855 851 847 843 840 836 832 829 826 823 821 819 819 818 818 818 817 817 815 814 813 812 819 817 816 814 812 811 810 810 810 811 810 814 820 822 828 833 834 839 824 824 824
872 868 865 861 858 853 849 845 842 838 834 831 828 825 823 821 819 819 818 818 817 816 816 814 814 813 821 817 816 815 813 813 811 811 811 811 811 825 828 834 841 846 845 839 834 824 823
873 869 866 863 859 855 850 846 843 839 836 832 829 826 824 822 820 819 819 818 817 816 816 815 816 821 820 823 818 817 814 813 813 813 814 817 827 836 844 845 851 846 847 843 844 827 826
874 871 868 863 860 856 852 848 845 841 837 833 830 827 824 823 821 820 819 819 821 822 818 826 826 826 823 822 819 817 815 814 815 821 832 831 842 847 841 842 841 842 846 848 839 829 830
875 872 869 865 862 858 854 850 846 843 839 835 831 828 825 823 821 819 819 822 827 829 830 825 825 825 824 823 824 819 816 820 824 833 832 838 843 837 837 838 839 841 843 844 836 830 832
876 873 870 867 864 860 856 852 848 844 840 836 832 829 826 823 822 822 822 826 827 828 832 827 826 825 825 825 827 826 822 824 829 833 836 839 834 833 833 836 841 840 840 838 838 835 833
877 875 872 869 866 862 858 854 850 846 841 837 833 830 827 823 826 825 826 828 828 828 847 835 829 827 826 825 828 825 824 827 830 834 835 835 832 834 834 835 840 844 835 837 840 840 839
877 875 873 870 867 863 860 856 851 847 842 838 834 830 828 824 826 828 830 828 828 830 875 835 831 825 825 829 830 825 825 824 833 834 836 833 834 835 834 833 837 838 834 838 836 840 844
877 875 873 871 868 865 861 857 853 848 843 839 835 832 829 828 828 830 830 829 830 853 870 836 832 834 831 832 831 828 829 828 831 834 836 836 835 836 833 834 835 836 835 838 849 849 848
876 875 873 871 868 865 862 858 853 848 844 840 836 833 831 830 832 830 831 831 855 864 838 839 839 838 840 839 834 837 839 843 844 838 848 844 835 834 834 836 835 840 843 848 844 850 835
875 874 872 870 868 865 862 858 854 849 844 840 836 834 833 832 832 832 832 841 850 842 844 840 841 839 840 840 838 839 841 846 844 848 860 857 848 835 835 835 838 843 847 856 845 851 844
873 872 871 869 867 864 862 858 854 850 845 840 836 834 834 835 834 833 838 857 850 844 839 841 841 841 841 840 843 841 842 847 843 844 844 854 845 834 835 836 839 845 848 849 852 860 866
870 869 868 867 866 864 861 858 854 850 845 840 836 835 835 836 835 835 846 851 844 839 840 841 842 841 844 843 842 842 842 840 840 843 843 848 855 838 837 839 844 843 849 851 864 847 843
867 867 866 865 865 863 861 858 854 851 846 841 837 838 837 836 837 842 851 851 842 839 839 842 843 843 847 843 845 847 842 839 838 843 844 849 855 843 839 842 843 851 851 854 860 863 849
865 864 864 864 863 862 861 858 855 852 847 842 843 848 839 837 846 858 849 842 839 839 840 841 842 845 845 844 844 848 845 839 837 840 845 848 862 863 841 835 836 837 841 846 849 842 858
865 863 863 863 862 861 860 858 856 854 850 848 851 849 840 839 848 849 846 842 839 840 840 842 842 842 842 843 845 843 838 830 836 837 842 847 854 854 835 837 839 838 839 835 834 833 827
862 862 862 861 861 860 859 857 856 854 853 851 852 852 844 843 850 844 844 840 839 839 837 839 838 838 841 843 844 837 837 829 834 833 833 837 849 840 830 819 822 829 827 827 820 831 807
860 860 859 859 858 858 857 856 855 855 853 854 852 853 854 850 847 847 846 843 840 838 840 839 837 839 840 842 841 843 839 834 834 831 835 839 848 843 822 818 816 810 812 811 814 796 806
857 857 856 855 856 854 854 853 853 853 853 853 855 852 856 853 849 846 844 842 840 834 837 837 839 829 839 838 828 827 831 835 829 836 837 841 833 838 815 823 816 810 803 798 795 786 786
852 852 852 852 852 852 851 849 850 850 851 850 850 850 849 844 848 846 843 834 832 832 826 826 831 832 835 829 825 819 819 819 817 824 831 837 839 839 810 812 817 801 780 779 782 778 772
850 849 847 848 848 848 847 847 846 847 848 848 848 848 850 843 847 842 833 835 831 831 829 824 828 829 820 819 821 819 822 823 824 815 812 820 826 832 813 816 798 760 765 766 770 761 769
845 845 845 844 843 843 842 842 842 843 844 845 845 845 846 845 846 841 837 834 832 830 831 825 819 817 817 819 823 823 816 814 809 812 813 810 809 819 806 794 778 760 768 772 772 760 768
843 842 843 841 840 837 838 838 838 838 839 841 841 842 842 841 837 831 832 828 830 828 826 821 819 819 819 821 824 825 815 810 806 802 819 818 815 814 806 798 782 767 778 778 776 768 779
841 840 839 838 835 833 832 833 832 832 833 834 834 837 839 837 830 829 830 826 826 827 827 820 817 819 819 822 821 823 812 807 807 805 797 817 818 808 799 786 777 779 780 781 781 771 781
839 837 834 832 832 829 827 828 828 827 828 828 826 828 832 829 822 822 821 824 822 822 822 818 820 818 822 820 814 810 808 804 809 801 792 798 803 805 800 787 776 785 785 783 795 795 794
836 834 833 831 829 826 823 822 822 822 822 823 823 823 825 824 819 816 816 816 816 816 819 817 813 813 813 816 817 814 816 817 809 798 800 796 786 789 796 779 795 806 807 813 807 804 807
Wind_Speed
18 20 21 21 22 19 18 18 18 18 19 18 17 14 9 8 8 8 8 8 8 8 6 4 4 5 2 6 3 14 17 14 11 16 19 4 7 3 4 2 3 4 1 1 2 1 1
18 19 20 24 25 21 21 20 19 19 20 20 17 15 10 8 7 6 7 7 7 6 6 7 9 4 3 6 9 14 14 12 16 13 13 10 3 2 5 3 3 0 1 1 1 1 1
17 18 23 26 26 26 23 20 21 23 24 22 18 15 12 8 6 5 5 5 6 5 5 6 7 2 8 1 8 14 12 11 12 11 4 6 3 5 1 2 4 1 2 4 2 1 0
17 19 23 26 29 28 25 23 23 23 24 23 19 14 12 8 6 5 4 4 3 4 5 5 6 3 2 5 8 15 14 5 7 7 5 7 4 6 4 1 6 5 4 5 2 1 2
16 19 23 26 28 29 27 24 23 23 24 22 18 15 12 9 3 3 3 3 4 3 4 5 3 4 2 5 7 13 12 6 5 5 8 4 6 4 6 3 4 7 3 3 8 2 2
15 19 22 24 27 30 29 27 25 24 24 24 19 16 11 12 3 1 1 2 5 5 3 2 5 4 6 4 8 11 8 6 5 3 4 8 6 4 5 6 1 4 4 4 5 4 2
13 18 21 23 26 29 29 27 25 25 25 25 21 17 12 9 8 3 3 4 4 4 11 4 1 2 4 10 3 12 10 2 4 8 4 5 7 2 3 1 2 3 3 5 5 4 4
13 17 20 23 25 28 28 28 25 25 25 25 22 17 15 6 9 7 2 6 3 2 4 0 1 2 2 4 5 9 9 5 6 3 4 5 2 3 3 2 2 4 3 5 6 3 2
12 16 19 21 24 26 27 28 27 25 25 26 24 17 15 6 5 7 10 6 5 2 3 2 1 1 3 3 1 6 5 2 4 3 3 4 1 2 1 2 6 3 4 3 4 6 3
10 13 16 19 23 25 26 27 28 26 26 26 25 17 15 8 2 5 4 2 2 2 4 3 3 3 2 1 2 2 4 2 4 1 0 1 1 0 1 2 2 5 2 3 6 3 3
10 13 14 17 22 24 26 27 29 28 27 26 24 16 13 12 3 4 3 1 1 1 3 1 4 2 3 4 3 3 4 4 2 1 1 2 2 2 1 2 4 8 3 4 1 1 3
11 13 15 17 21 23 25 27 29 30 29 28 24 14 10 6 7 4 2 1 1 5 5 1 1 4 2 4 5 7 5 7 1 1 3 3 2 2 2 2 2 5 3 2 3 2 2
13 14 15 16 20 22 24 26 29 31 31 29 23 12 8 8 3 3 2 2 5 4 2 2 2 4 1 3 4 6 5 6 3 4 6 6 2 1 0 3 1 7 5 4 5 4 4
14 14 15 17 19 22 23 25 28 30 31 30 23 8 5 8 5 2 2 5 1 1 3 1 1 2 1 3 1 4 2 3 1 3 3 3 6 1 1 1 0 3 3 4 5 3 5
15 16 16 18 19 21 23 25 27 30 31 30 20 6 2 8 4 2 4 3 6 5 1 2 1 1 2 1 1 3 1 3 4 4 2 1 5 2 1 1 3 1 1 1 1 1 2
17 18 18 18 19 19 21 23 26 28 30 28 15 5 2 6 3 2 4 5 3 2 3 1 4 2 3 2 2 3 1 3 2 3 2 3 5 0 1 2 3 2 4 2 2 4 6
15 17 19 18 16 17 18 20 24 26 27 21 7 3 2 4 2 4 3 6 4 2 1 2 2 2 5 2 1 2 3 3 4 4 2 4 3 4 1 5 6 1 1 2 2 4 4
10 11 10 10 12 14 16 19 21 23 24 15 5 3 3 3 3 1 2 3 1 2 1 3 2 6 6 4 3 4 5 6 7 7 5 4 4 5 10 2 1 2 6 6 4 5 5
10 9 8 9 11 13 15 17 17 18 19 9 2 3 2 2 1 2 3 3 3 3 3 4 3 5 3 4 3 6 4 2 8 8 8 6 3 5 7 2 1 5 6 6 2 2 10
12 11 11 12 13 13 13 14 13 13 13 8 2 3 3 4 1 1 2 4 3 2 2 4 4 3 3 4 5 3 3 3 6 6 6 7 5 8 10 11 3 6 7 8 11 4 11
17 16 14 12 11 11 12 12 13 12 9 7 2 3 2 3 2 1 0 2 2 3 3 3 2 7 7 5 3 5 4 4 3 4 4 5 6 7 16 18 14 19 17 17 17 25 15
20 19 17 17 16 13 12 12 11 10 8 2 2 2 0 2 2 2 4 4 5 4 6 5 5 2 7 6 8 4 5 5 7 1 6 3 6 3 14 12 16 20 18 21 23 27 19
14 19 19 18 17 16 14 12 11 9 5 4 3 1 0 1 2 3 4 6 4 2 5 3 7 2 3 13 12 11 6 4 5 7 9 6 3 2 11 2 6 12 14 18 8 7 9
15 13 12 15 16 17 16 15 14 12 11 6 4 3 2 3 3 5 2 3 4 4 4 2 5 5 5 1 2 1 3 8 8 15 12 8 8 3 7 1 11 5 1 5 10 12 10
12 14 16 15 15 14 15 15 16 15 14 15 8 5 3 3 3 6 7 6 6 5 5 5 7 4 2 1 2 5 3 4 6 4 6 13 10 4 5 8 10 18 4 3 2 10 3
13 12 14 14 16 16 16 16 17 18 16 19 15 11 3 1 6 9 4 5 7 5 4 5 1 2 1 2 2 3 4 2 5 5 4 2 6 6 2 5 6 0 1 2 0 12 4
13 14 14 15 16 15 17 19 18 19 20 21 12 19 5 3 4 5 4 3 3 3 3 3 2 1 1 3 4 5 5 6 4 5 4 2 2 9 12 7 6 1 3 3 3 6 2
15 16 16 16 17 17 17 18 19 19 22 26 17 24 18 3 4 9 6 5 3 3 5 1 3 1 1 3 3 3 3 2 2 2 3 3 3 4 3 4 5 3 2 3 4 4 6
15 16 18 18 17 19 19 19 20 19 20 27 11 19 26 7 3 3 12 21 16 10 2 3 2 2 3 2 2 2 3 2 3 3 2 4 5 2 6 3 5 8 6 4 6 5 5
Wind_Direction
37 31 21 15 14 16 13 17 22 20 17 17 21 28 49 54 59 65 70 78 85 89 81 35 339 342 0 40 348 345 354 11 27 36 43 46 51 75 84 74 39 71 196 47 110 142 156
34 22 23 23 21 22 21 24 23 24 23 24 25 30 46 45 52 62 76 81 82 72 53 48 42 35 81 64 336 345 359 23 34 39 41 40 77 80 92 60 74 97 163 329 179 252 272
29 26 28 25 23 24 25 25 29 29 26 25 28 32 37 45 51 59 72 76 84 60 36 17 13 52 63 145 349 8 13 29 27 34 49 35 39 78 70 58 340 66 329 341 36 286 230
24 27 28 25 25 25 27 29 29 27 26 25 25 27 29 37 54 66 80 82 47 26 24 8 13 34 88 351 354 7 14 34 30 36 51 30 64 94 52 327 18 31 46 10 331 23 347
21 25 27 25 24 24 25 25 24 25 23 22 23 22 21 22 52 79 70 47 8 336 8 10 19 63 347 340 10 2 1 355 357 39 45 52 61 70 21 52 13 14 328 328 318 225 256
22 22 19 23 23 23 23 23 22 21 20 19 19 18 14 21 45 46 43 81 30 24 346 9 41 42 9 311 323 345 1 16 32 357 20 36 48 61 28 41 330 301 329 302 256 300 286
21 17 16 21 19 19 20 20 20 17 16 16 15 15 19 19 28 328 318 318 17 352 38 96 184 166 302 326 335 1 355 9 32 51 40 5 62 23 285 249 265 249 241 256 260 278 300
16 14 12 14 15 16 17 16 17 16 14 12 11 12 13 5 11 9 7 76 80 143 70 7 277 317 314 350 8 340 6 63 49 50 340 27 64 247 252 218 270 259 275 272 286 262 248
8 7 5 5 9 12 13 13 13 13 12 10 8 7 8 360 1 28 70 92 91 42 100 324 9 356 306 13 56 316 28 71 75 60 20 132 201 303 117 334 355 281 221 260 257 309 238
355 358 3 1 4 7 8 9 9 9 9 8 5 4 8 7 78 25 53 66 52 36 67 305 344 351 339 56 33 329 26 86 27 116 162 207 287 166 194 255 113 304 208 285 295 15 288
332 343 353 354 354 359 3 5 6 6 5 4 3 4 8 35 48 50 344 133 19 11 11 305 314 319 340 77 295 359 30 37 87 317 94 276 315 354 334 233 160 242 345 280 280 180 358
322 331 344 352 352 355 356 358 2 3 2 1 358 4 9 26 47 42 51 73 11 43 262 350 316 345 24 14 346 321 27 42 104 104 2 264 314 191 252 296 204 316 333 76 59 92 355
313 323 334 342 345 348 349 352 356 360 358 357 355 1 28 37 20 36 77 27 34 134 15 314 337 30 350 319 350 30 15 12 52 14 6 334 247 300 102 328 62 21 18 342 352 4 231
304 313 324 331 338 340 343 346 351 354 354 354 351 356 36 39 33 79 3 50 189 248 231 16 339 320 293 360 337 351 40 344 137 74 75 30 331 175 156 146 321 32 109 143 289 283 284
294 303 312 319 330 332 337 341 346 350 351 350 350 354 28 13 29 23 70 67 217 201 150 193 306 347 307 300 246 355 220 216 210 171 110 34 277 283 62 94 99 141 210 152 256 261 346
289 295 300 306 318 324 331 336 340 346 349 347 344 342 52 6 16 28 76 236 228 208 147 141 209 183 247 263 333 0 271 196 189 166 129 174 303 224 3 83 35 161 163 10 35 309 293
289 291 292 299 307 315 324 333 338 344 349 348 348 23 10 11 26 51 188 230 243 236 136 173 233 227 227 290 221 262 258 266 185 167 96 140 138 284 313 195 183 116 246 86 163 176 227
308 310 306 303 300 310 321 330 336 345 352 356 3 343 355 355 37 29 215 213 283 199 133 234 216 206 195 183 228 236 234 231 173 152 167 196 154 260 237 167 132 178 205 172 169 227 233
303 302 303 297 300 307 316 325 335 345 357 346 21 266 2 358 248 284 287 287 244 177 216 189 239 207 183 211 236 203 222 253 170 165 171 185 211 309 319 33 39 208 204 205 233 324 233
289 293 287 285 289 300 311 320 331 341 346 353 39 336 324 52 51 166 313 264 278 230 235 193 210 143 162 237 226 261 248 241 195 207 170 154 193 199 245 254 173 216 208 203 210 222 261
280 279 286 289 292 301 310 317 325 328 335 333 76 256 201 296 334 340 202 295 253 270 229 207 251 218 185 220 211 229 238 294 214 229 170 177 237 228 245 258 264 264 257 248 230 244 242
275 276 278 278 280 285 290 297 303 307 313 284 272 161 351 250 256 202 190 236 217 250 168 239 218 224 195 221 201 216 189 205 225 126 179 193 254 223 277 234 241 266 257 252 248 255 252
272 273 275 273 274 275 277 282 284 283 269 232 204 248 148 214 204 143 223 214 230 183 235 227 212 177 226 237 241 245 218 229 225 180 200 165 218 214 271 98 313 273 241 232 223 226 217
281 285 275 272 275 270 273 274 272 264 241 239 219 158 163 266 211 212 238 219 251 230 241 285 180 177 235 82 266 300 248 248 236 240 212 209 211 205 271 101 266 267 241 218 221 250 217
288 286 285 284 275 272 271 272 265 257 245 234 225 190 171 255 234 289 266 248 280 272 257 239 236 207 178 123 306 311 288 301 257 234 218 224 246 247 251 234 296 308 360 22 158 292 261
310 296 291 285 278 282 277 266 261 254 239 231 237 214 183 210 217 226 237 241 272 264 291 239 246 311 210 129 155 240 240 237 285 297 37 104 238 238 210 247 244 48 33 357 95 273 15
319 309 302 296 289 286 279 281 271 255 240 228 235 222 212 226 241 156 214 202 181 252 246 286 261 198 231 175 211 217 238 187 238 233 233 187 192 227 247 269 265 5 53 8 256 324 235
326 324 315 314 307 292 281 278 277 272 251 223 232 220 203 226 232 195 199 207 231 224 254 297 323 188 155 212 225 241 241 225 273 252 260 217 222 220 239 255 280 34 359 208 355 348 10
323 324 321 316 320 313 295 280 272 273 265 237 231 233 223 237 264 267 253 244 249 241 209 222 249 160 212 196 243 262 250 235 214 262 187 258 206 236 216 292 51 37 44 15 355 51 16